DECAYED

STARLINK-1782, 47548 (Decayed)

Orbit data source: Space-Track

STARLINK-1782, 47548 was a payload satellite owned by SpaceX/Seattle (US) in LEO that was launched on Thu, 04 Feb 2021 UTC via an FALCON 9 launch vehicle from the Air Force Eastern Test Range (AFETR). Payload-class satellites include a variety of spacecraft equipped with specific instruments for various scientific and technological missions. These include communications satellites like Starlink; space stations such as the ISS; scientific satellites like the Hubble; Earth observation satellites from companies like Planet Labs, Umbra, and HawkEye 360; GPS; miniature CubeSats for education and research; and military/defense satellites.

Not visible in the next 10 days
Identifier
47548, 2021-009A
Orbit
Decayed
Country
Flag of USUS
Related business
Manufacturer
SpaceX/Seattle
Mission
Decayed Commercial Communications
Bus & Motor
STARLINK, Unknown motor
Mass
260 kg wet, ~248 kg dry
Launch date (UTC)
2021-02-04 (5 years ago)
Launch vehicle
FALCON 9
Launch site
Air Force Eastern Test Range (AFETR)
Object type
Payload
Rocket body
Debris
Shape & HBR
Box + 1 Pan, 10.1 m
Radar Cross Section
13.562 m², Large (>1 m²)

Expand to show TLE details & history
Last TLE update: 1 year ago

TLE from 1 year ago
0 STARLINK-1782
1 47548U 21009A   25036.16541748  .10001168  12236-4  86910-3 0  9994
2 47548  53.0394 319.7485 0005578 205.2496 300.7018 16.38496757222139
Epoch: 2025-02-05T03:58Z
TLE epoch observation values (Epoch: 2025-02-05T03:58:12.070Z)
Latitude
26.69799°
Longitude
-77.46334°
Altitude
169.144 km
Speed
7.81 km/s
True Right ascension
07h 50m 35s
True Declination
26° 32' 52"
Sunlit
Object was in full shadow at epoch
Visualization orbit readout
Latitude
Unknown
Longitude
Unknown
Altitude
Unknown
Speed
Unknown
Apparent Right ascension
Unknown
Apparent Declination
Unknown
Sunlit
N/A
Visualization observer readout
Local Sidereal Time
23:08:39
Azimuth
Unknown
Elevation
Unknown
Doppler factor
Unknown
Orbital elements
Apogee altitude
173.745 km
Perigee altitude
166.44 km
Semi-major axis
6,548.23 km
Eccentricity
0.00056
Inclination
53.0394°
RAAN
319.7485°
Arg. of periapsis
205.2496°
True anomaly
300.64682°
Mean anomaly
300.7018°
Eccentric anomaly
300.67431°
Mean motion
4.09598 °/min
Orbital period
87.89 mins
BSTAR
0.0008691
Loading maneuver chart data...
Computing Atmospheric mass density...

Documentation

Showing up to 5 results
|